YAOGAN-35 02B (52908 NORAD) Tracking and Keplerian Element Data

This shows tracking and keplerian element data for the satellite.

Feedback or suggestion? Click here.




ElementValue
Catalog52908
NameYAOGAN-35 02B
Epoch Orbit1457
Epoch Day269.86247163
Epoch Year2022
RAAN39.8717
Inclination34.9959
Eccentricity0.0011287
Argument of Perigee106.8454
Mean Anonmoly31.9408
Mean Motion15.23096262
Decay Rate0.00010004
L11 52908U 22068B 22269.86247163 .00010004 00000+0 41439-3 0 9998
L22 52908 34.9959 39.8717 0011287 106.8454 31.9408 15.23096262 14575

Live tracking and technical data element details for YAOGAN-35 02B (NORAD 52908). YAOGAN-35 02B can be tracked NOW for your location showing map with azimuth and elevation plus other details from your city location.

Track the satellite on the map from your city or location and see movement details for azimuth, elevation, latitude, longitude, range, height, and movement on the map or in text.







IsCatalogInMostPopularTable: catalog: 52908, numindb: 6
Update: records affected: 1



GetName: 52908 YAOGAN-35 02B

Hit Count: updated at: Thu, 06 Oct 2022 05:26:00 GMT